Time,TemperatureF,DewpointF,PressureIn,WindDirection,WindDirectionDegrees,WindSpeedMPH,WindSpeedGustMPH,Humidity,HourlyPrecipIn,Conditions,Clouds,dailyrainin,SoftwareType,DateUTC
2013-08-18 00:04:00,60.8,49.8,30.01,East,90,0.0,0.0,67,0.00,CLR,BKN,0.00,WeatherDisplay:10.37,2013-08-17 22:04:00,
2013-08-18 00:09:00,60.3,50.0,30.01,East,90,0.0,0.0,69,0.00,CLR,BKN,0.00,WeatherDisplay:10.37,2013-08-17 22:09:00,
2013-08-18 00:14:00,60.3,49.7,30.00,East,90,0.0,0.0,68,0.00,CLR,BKN,0.00,WeatherDisplay:10.37,2013-08-17 22:14:00,
2013-08-18 00:19:00,60.1,49.9,30.01,East,90,0.0,0.0,69,0.00,CLR,BKN,0.00,WeatherDisplay:10.37,2013-08-17 22:19:00,
2013-08-18 00:24:00,59.9,49.7,30.01,East,90,0.0,0.0,69,0.00,CLR,BKN,0.00,WeatherDisplay:10.37,2013-08-17 22:24:00,
2013-08-18 00:29:00,59.7,49.5,30.01,East,90,0.0,0.0,69,0.00,CLR,BKN,0.00,WeatherDisplay:10.37,2013-08-17 22:29:00,
2013-08-18 00:34:00,59.5,49.7,30.01,East,90,0.0,0.0,70,0.00,CLR,BKN,0.00,WeatherDisplay:10.37,2013-08-17 22:34:00,
2013-08-18 00:39:00,59.5,49.7,30.01,East,90,0.7,0.0,70,0.00,CLR,BKN,0.00,WeatherDisplay:10.37,2013-08-17 22:39:00,
2013-08-18 00:44:00,59.2,49.4,30.01,East,90,0.0,0.0,70,0.00,CLR,BKN,0.00,WeatherDisplay:10.37,2013-08-17 22:44:00,
2013-08-18 00:49:00,59.0,49.2,30.01,East,90,0.0,0.0,70,0.00,CLR,BKN,0.00,WeatherDisplay:10.37,2013-08-17 22:49:00,
2013-08-18 00:54:00,59.0,49.2,30.01,East,90,1.6,1.6,70,0.00,CLR,BKN,0.00,WeatherDisplay:10.37,2013-08-17 22:54:00,
2013-08-18 00:59:00,58.8,49.4,30.01,SE,135,1.6,1.6,71,0.00,CLR,BKN,0.00,WeatherDisplay:10.37,2013-08-17 22:59:00,
2013-08-18 01:04:00,58.6,48.9,30.01,East,90,2.3,2.3,70,0.00,CLR,BKN,0.00,WeatherDisplay:10.37,2013-08-17 23:04:00,
2013-08-18 01:09:00,58.5,48.7,30.01,SE,135,1.6,0.0,70,0.00,CLR,BKN,0.00,WeatherDisplay:10.37,2013-08-17 23:09:00,
2013-08-18 01:14:00,58.3,48.2,30.01,SE,135,0.0,0.0,69,0.00,CLR,BKN,0.00,WeatherDisplay:10.37,2013-08-17 23:14:00,
2013-08-18 01:19:00,57.9,48.2,30.01,SE,135,0.0,0.0,70,0.00,CLR,BKN,0.00,WeatherDisplay:10.37,2013-08-17 23:19:00,
2013-08-18 01:24:00,57.7,48.0,30.01,SE,135,0.0,0.0,70,0.00,CLR,BKN,0.00,WeatherDisplay:10.37,2013-08-17 23:24:00,
2013-08-18 01:29:00,57.6,47.8,30.01,SE,135,0.0,0.0,70,0.00,CLR,BKN,0.00,WeatherDisplay:10.37,2013-08-17 23:29:00,
2013-08-18 01:34:00,57.4,47.7,30.01,SE,135,1.2,0.0,70,0.00,CLR,BKN,0.00,WeatherDisplay:10.37,2013-08-17 23:34:00,
2013-08-18 01:39:00,57.2,47.9,30.01,SE,135,0.0,0.0,71,0.00,CLR,BKN,0.00,WeatherDisplay:10.37,2013-08-17 23:39:00,
2013-08-18 01:44:00,57.2,47.9,30.01,SE,135,0.0,0.0,71,0.00,CLR,BKN,0.00,WeatherDisplay:10.37,2013-08-17 23:44:00,
2013-08-18 01:49:00,57.0,48.1,30.01,SE,135,1.2,1.2,72,0.00,CLR,BKN,0.00,WeatherDisplay:10.37,2013-08-17 23:49:00,
2013-08-18 01:54:00,57.0,48.1,30.01,SE,135,1.2,0.0,72,0.00,CLR,BKN,0.00,WeatherDisplay:10.37,2013-08-17 23:54:00,
2013-08-18 01:59:00,56.8,47.9,30.01,SE,135,1.6,1.6,72,0.00,CLR,BKN,0.00,WeatherDisplay:10.37,2013-08-17 23:59:00,
2013-08-18 02:04:00,56.8,47.9,30.01,SE,135,1.6,1.6,72,0.00,CLR,BKN,0.00,WeatherDisplay:10.37,2013-08-18 00:04:00,
2013-08-18 02:09:00,56.7,48.1,30.01,SE,135,1.2,0.0,73,0.00,CLR,BKN,0.00,WeatherDisplay:10.37,2013-08-18 00:09:00,
2013-08-18 02:14:00,56.5,47.9,30.00,SE,135,1.2,0.0,73,0.00,CLR,BKN,0.00,WeatherDisplay:10.37,2013-08-18 00:14:00,
2013-08-18 02:19:00,56.3,47.8,30.01,SE,135,0.0,0.0,73,0.00,CLR,BKN,0.00,WeatherDisplay:10.37,2013-08-18 00:19:00,
2013-08-18 02:24:00,56.1,47.6,30.00,SE,135,0.0,0.0,73,0.00,CLR,BKN,0.00,WeatherDisplay:10.37,2013-08-18 00:24:00,
2013-08-18 02:29:00,55.9,47.4,30.00,SE,135,0.0,0.0,73,0.00,CLR,BKN,0.00,WeatherDisplay:10.37,2013-08-18 00:29:00,
2013-08-18 02:34:00,55.9,47.4,30.01,SE,135,0.0,0.0,73,0.00,CLR,BKN,0.00,WeatherDisplay:10.37,2013-08-18 00:34:00,
2013-08-18 02:39:00,55.8,47.6,30.01,SE,135,0.0,0.0,74,0.00,CLR,BKN,0.00,WeatherDisplay:10.37,2013-08-18 00:39:00,
2013-08-18 02:44:00,55.6,47.4,30.01,SE,135,1.2,0.0,74,0.00,CLR,BKN,0.00,WeatherDisplay:10.37,2013-08-18 00:44:00,
2013-08-18 02:49:00,55.6,47.4,30.01,SE,135,0.7,0.0,74,0.00,CLR,BKN,0.00,WeatherDisplay:10.37,2013-08-18 00:49:00,
2013-08-18 02:54:00,55.4,47.6,30.01,SE,135,0.7,0.0,75,0.00,CLR,BKN,0.00,WeatherDisplay:10.37,2013-08-18 00:54:00,
2013-08-18 02:59:00,55.2,47.4,30.01,SE,135,1.2,0.0,75,0.00,CLR,BKN,0.00,WeatherDisplay:10.37,2013-08-18 00:59:00,
2013-08-18 03:04:00,55.2,47.4,30.01,SE,135,1.2,0.0,75,0.00,CLR,BKN,0.00,WeatherDisplay:10.37,2013-08-18 01:04:00,
2013-08-18 03:09:00,55.0,47.3,30.01,SE,135,1.2,0.0,75,0.00,CLR,BKN,0.00,WeatherDisplay:10.37,2013-08-18 01:09:00,
2013-08-18 03:14:00,54.9,47.4,30.02,SE,135,1.2,0.0,76,0.00,CLR,BKN,0.00,WeatherDisplay:10.37,2013-08-18 01:14:00,
2013-08-18 03:19:00,54.7,47.3,30.01,SE,135,1.2,0.0,76,0.00,CLR,BKN,0.00,WeatherDisplay:10.37,2013-08-18 01:19:00,
2013-08-18 03:24:00,54.7,47.6,30.01,SE,135,0.0,0.0,77,0.00,CLR,BKN,0.00,WeatherDisplay:10.37,2013-08-18 01:24:00,
2013-08-18 03:29:00,54.5,47.4,30.01,SE,135,0.0,0.0,77,0.00,CLR,BKN,0.00,WeatherDisplay:10.37,2013-08-18 01:29:00,
2013-08-18 03:34:00,54.5,47.8,30.01,SE,135,0.0,0.0,78,0.00,CLR,BKN,0.00,WeatherDisplay:10.37,2013-08-18 01:34:00,
2013-08-18 03:39:00,54.5,47.8,30.01,SE,135,0.0,0.0,78,0.00,CLR,BKN,0.00,WeatherDisplay:10.37,2013-08-18 01:39:00,
2013-08-18 03:44:00,54.3,47.6,30.01,SE,135,0.0,0.0,78,0.00,CLR,BKN,0.00,WeatherDisplay:10.37,2013-08-18 01:44:00,
2013-08-18 03:49:00,54.3,47.6,30.01,SE,135,0.0,0.0,78,0.00,CLR,BKN,0.00,WeatherDisplay:10.37,2013-08-18 01:49:00,
2013-08-18 03:54:00,54.3,47.6,30.01,SE,135,0.0,0.0,78,0.00,CLR,BKN,0.00,WeatherDisplay:10.37,2013-08-18 01:54:00,
2013-08-18 03:59:00,54.3,47.6,30.01,SE,135,1.2,0.0,78,0.00,CLR,BKN,0.00,WeatherDisplay:10.37,2013-08-18 01:59:00,
2013-08-18 04:04:00,54.3,47.6,30.01,SE,135,1.2,0.0,78,0.00,CLR,BKN,0.00,WeatherDisplay:10.37,2013-08-18 02:04:00,
2013-08-18 04:09:00,54.1,47.4,30.01,SE,135,0.0,0.0,78,0.00,CLR,BKN,0.00,WeatherDisplay:10.37,2013-08-18 02:09:00,
2013-08-18 04:14:00,54.0,47.3,30.02,SE,135,1.2,0.0,78,0.00,CLR,BKN,0.00,WeatherDisplay:10.37,2013-08-18 02:14:00,
2013-08-18 04:19:00,54.0,47.3,30.01,SE,135,0.0,0.0,78,0.00,CLR,BKN,0.00,WeatherDisplay:10.37,2013-08-18 02:19:00,
2013-08-18 04:24:00,53.8,47.1,30.01,SE,135,0.0,0.0,78,0.00,CLR,BKN,0.00,WeatherDisplay:10.37,2013-08-18 02:24:00,
2013-08-18 04:29:00,53.8,47.1,30.01,SE,135,1.6,1.6,78,0.00,CLR,BKN,0.00,WeatherDisplay:10.37,2013-08-18 02:29:00,
2013-08-18 04:34:00,53.8,47.1,30.01,East,90,1.6,1.6,78,0.00,CLR,BKN,0.00,WeatherDisplay:10.37,2013-08-18 02:34:00,
2013-08-18 04:39:00,53.6,46.9,30.01,East,90,1.6,1.6,78,0.00,CLR,BKN,0.00,WeatherDisplay:10.37,2013-08-18 02:39:00,
2013-08-18 04:44:00,53.4,47.1,30.01,East,90,2.3,2.3,79,0.00,CLR,BKN,0.00,WeatherDisplay:10.37,2013-08-18 02:44:00,
2013-08-18 04:49:00,53.4,47.4,30.01,NE,45,1.2,0.0,80,0.00,CLR,BKN,0.00,WeatherDisplay:10.37,2013-08-18 02:49:00,
2013-08-18 04:54:00,53.1,47.1,30.02,NE,45,1.2,0.0,80,0.00,CLR,BKN,0.00,WeatherDisplay:10.37,2013-08-18 02:54:00,
2013-08-18 04:59:00,53.1,47.1,30.02,NE,45,0.7,0.0,80,0.00,CLR,BKN,0.00,WeatherDisplay:10.37,2013-08-18 02:59:00,
2013-08-18 05:04:00,52.9,47.2,30.02,NE,45,1.2,0.0,81,0.00,CLR,BKN,0.00,WeatherDisplay:10.37,2013-08-18 03:04:00,
2013-08-18 05:09:00,52.9,47.2,30.02,NE,45,1.6,1.6,81,0.00,CLR,BKN,0.00,WeatherDisplay:10.37,2013-08-18 03:09:00,
2013-08-18 05:14:00,52.9,47.2,30.02,NE,45,2.3,2.3,81,0.00,CLR,BKN,0.00,WeatherDisplay:10.37,2013-08-18 03:14:00,
2013-08-18 05:19:00,52.7,47.0,30.02,NE,45,1.2,0.0,81,0.00,CLR,BKN,0.00,WeatherDisplay:10.37,2013-08-18 03:19:00,
2013-08-18 05:24:00,52.5,46.9,30.02,NE,45,0.0,0.0,81,0.00,CLR,BKN,0.00,WeatherDisplay:10.37,2013-08-18 03:24:00,
2013-08-18 05:29:00,52.5,46.9,30.02,NE,45,1.6,1.6,81,0.00,CLR,BKN,0.00,WeatherDisplay:10.37,2013-08-18 03:29:00,
2013-08-18 05:34:00,52.3,46.7,30.02,NE,45,1.2,0.0,81,0.00,CLR,BKN,0.00,WeatherDisplay:10.37,2013-08-18 03:34:00,
2013-08-18 05:39:00,52.3,47.0,30.03,NE,45,1.2,0.0,82,0.00,CLR,BKN,0.00,WeatherDisplay:10.37,2013-08-18 03:39:00,
2013-08-18 05:44:00,52.2,46.8,30.02,ENE,68,2.3,2.3,82,0.00,CLR,BKN,0.00,WeatherDisplay:10.37,2013-08-18 03:44:00,
2013-08-18 05:49:00,52.2,46.8,30.02,East,90,1.6,1.6,82,0.00,CLR,BKN,0.00,WeatherDisplay:10.37,2013-08-18 03:49:00,
2013-08-18 05:54:00,52.2,46.8,30.02,SE,135,1.6,0.0,82,0.00,CLR,BKN,0.00,WeatherDisplay:10.37,2013-08-18 03:54:00,
2013-08-18 05:59:00,52.2,46.8,30.03,SE,135,1.2,0.0,82,0.00,CLR,BKN,0.00,WeatherDisplay:10.37,2013-08-18 03:59:00,
2013-08-18 06:01:00,52.2,46.8,30.02,SE,135,1.2,0.0,82,0.00,CLR,BKN,0.00,WeatherDisplay:10.37,2013-08-18 04:01:00,
2013-08-18 06:02:00,52.2,46.8,30.02,SE,135,1.2,0.0,82,0.00,CLR,BKN,0.00,WeatherDisplay:10.37,2013-08-18 04:02:00,
2013-08-18 06:03:00,52.2,46.8,30.02,SE,135,1.2,0.0,82,0.00,CLR,BKN,0.00,WeatherDisplay:10.37,2013-08-18 04:03:00,
2013-08-18 06:04:00,52.2,46.8,30.02,SE,135,1.2,0.0,82,0.00,CLR,BKN,0.00,WeatherDisplay:10.37,2013-08-18 04:04:00,
2013-08-18 06:05:00,52.2,46.8,30.02,SE,135,0.0,1.0,82,0.00,CLR,BKN,0.00,WeatherDisplay:10.37,2013-08-18 04:05:00,
2013-08-18 06:10:00,52.2,46.8,30.03,SE,135,0.0,1.0,82,0.00,CLR,BKN,0.00,WeatherDisplay:10.37,2013-08-18 04:10:00,
2013-08-18 06:15:00,52.2,46.8,30.03,SE,135,1.6,1.6,82,0.00,CLR,BKN,0.00,WeatherDisplay:10.37,2013-08-18 04:15:00,
2013-08-18 06:20:00,52.3,47.0,30.03,East,90,2.3,2.3,82,0.00,CLR,BKN,0.00,WeatherDisplay:10.37,2013-08-18 04:20:00,
2013-08-18 06:25:00,52.3,47.0,30.03,East,90,1.2,0.0,82,0.00,CLR,BKN,0.00,WeatherDisplay:10.37,2013-08-18 04:25:00,
2013-08-18 06:30:00,52.5,47.2,30.03,East,90,2.3,2.3,82,0.00,CLR,BKN,0.00,WeatherDisplay:10.37,2013-08-18 04:30:00,
2013-08-18 06:35:00,52.7,47.4,30.03,East,90,1.2,0.0,82,0.00,CLR,BKN,0.00,WeatherDisplay:10.37,2013-08-18 04:35:00,
2013-08-18 06:40:00,52.9,47.5,30.03,East,90,0.0,0.0,82,0.00,CLR,BKN,0.00,WeatherDisplay:10.37,2013-08-18 04:40:00,
2013-08-18 06:45:00,53.1,47.7,30.03,East,90,0.0,0.0,82,0.00,CLR,BKN,0.00,WeatherDisplay:10.37,2013-08-18 04:45:00,
2013-08-18 06:50:00,53.1,47.4,30.03,East,90,0.0,0.0,81,0.00,CLR,BKN,0.00,WeatherDisplay:10.37,2013-08-18 04:50:00,
2013-08-18 06:55:00,53.6,47.9,30.03,West,270,0.0,0.0,81,0.00,CLR,BKN,0.00,WeatherDisplay:10.37,2013-08-18 04:55:00,
2013-08-18 07:00:00,54.0,47.9,30.03,NW,315,1.6,0.0,80,0.00,CLR,BKN,0.00,WeatherDisplay:10.37,2013-08-18 05:00:00,
2013-08-18 07:05:00,54.5,48.5,30.04,NW,315,2.2,2.2,80,0.00,CLR,BKN,0.00,WeatherDisplay:10.37,2013-08-18 05:05:00,
2013-08-18 07:10:00,55.2,49.5,30.03,NW,315,1.6,0.0,81,0.00,CLR,BKN,0.00,WeatherDisplay:10.37,2013-08-18 05:10:00,
2013-08-18 07:15:00,56.1,50.7,30.04,South,180,1.2,0.0,82,0.00,CLR,BKN,0.00,WeatherDisplay:10.37,2013-08-18 05:15:00,
2013-08-18 07:20:00,56.7,51.2,30.03,NW,315,2.3,2.3,82,0.00,CLR,BKN,0.00,WeatherDisplay:10.37,2013-08-18 05:20:00,
2013-08-18 07:25:00,57.7,51.9,30.04,NW,315,2.3,2.3,81,0.00,CLR,BKN,0.00,WeatherDisplay:10.37,2013-08-18 05:25:00,
2013-08-18 07:30:00,58.6,52.8,30.04,NW,315,2.3,2.3,81,0.00,CLR,BKN,0.00,WeatherDisplay:10.37,2013-08-18 05:30:00,
2013-08-18 07:35:00,59.2,53.0,30.04,North,0,1.2,1.2,80,0.00,CLR,BKN,0.00,WeatherDisplay:10.37,2013-08-18 05:35:00,
2013-08-18 07:40:00,59.7,52.8,30.04,NW,315,1.6,0.0,78,0.00,CLR,BKN,0.00,WeatherDisplay:10.37,2013-08-18 05:40:00,
2013-08-18 07:45:00,60.3,52.7,30.03,NE,45,1.2,0.0,76,0.00,CLR,BKN,0.00,WeatherDisplay:10.37,2013-08-18 05:45:00,
2013-08-18 07:50:00,60.8,52.5,30.04,North,0,3.1,3.1,74,0.00,CLR,BKN,0.00,WeatherDisplay:10.37,2013-08-18 05:50:00,
2013-08-18 07:55:00,61.5,52.4,30.03,North,0,3.5,3.5,72,0.00,CLR,BKN,0.00,WeatherDisplay:10.37,2013-08-18 05:55:00,
2013-08-18 08:00:00,62.2,52.7,30.04,North,0,1.6,1.6,71,0.00,CLR,BKN,0.00,WeatherDisplay:10.37,2013-08-18 06:00:00,
2013-08-18 08:05:00,62.2,52.7,30.03,North,0,1.6,1.6,71,0.00,CLR,BKN,0.00,WeatherDisplay:10.37,2013-08-18 06:05:00,
2013-08-18 08:10:00,63.5,53.1,30.04,SE,135,3.5,3.5,69,0.00,CLR,BKN,0.00,WeatherDisplay:10.37,2013-08-18 06:10:00,
2013-08-18 08:15:00,64.2,53.4,30.04,North,0,3.5,3.5,68,0.00,CLR,BKN,0.00,WeatherDisplay:10.37,2013-08-18 06:15:00,
2013-08-18 08:20:00,65.1,53.5,30.04,North,0,2.3,2.3,66,0.00,CLR,BKN,0.00,WeatherDisplay:10.37,2013-08-18 06:20:00,
2013-08-18 08:25:00,65.7,53.6,30.04,North,0,2.3,2.3,65,0.00,CLR,BKN,0.00,WeatherDisplay:10.37,2013-08-18 06:25:00,
2013-08-18 08:30:00,66.2,53.7,30.04,North,0,2.3,2.3,64,0.00,CLR,BKN,0.00,WeatherDisplay:10.37,2013-08-18 06:30:00,
2013-08-18 08:35:00,66.9,53.9,30.04,North,0,2.3,2.3,63,0.00,CLR,BKN,0.00,WeatherDisplay:10.37,2013-08-18 06:35:00,
2013-08-18 08:40:00,67.6,53.7,30.04,West,270,2.3,0.0,61,0.00,CLR,BKN,0.00,WeatherDisplay:10.37,2013-08-18 06:40:00,
2013-08-18 08:45:00,68.2,53.8,30.04,North,0,1.6,1.6,60,0.00,CLR,BKN,0.00,WeatherDisplay:10.37,2013-08-18 06:45:00,
2013-08-18 08:50:00,68.7,54.3,30.04,North,0,1.6,1.6,60,0.00,CLR,BKN,0.00,WeatherDisplay:10.37,2013-08-18 06:50:00,
2013-08-18 08:55:00,69.1,54.6,30.04,East,90,1.2,0.0,60,0.00,CLR,BKN,0.00,WeatherDisplay:10.37,2013-08-18 06:55:00,
2013-08-18 09:00:00,69.8,54.8,30.04,NW,315,3.5,3.5,59,0.00,CLR,BKN,0.00,WeatherDisplay:10.37,2013-08-18 07:00:00,
2013-08-18 09:05:00,70.5,56.0,30.04,NW,315,3.5,3.5,60,0.00,CLR,BKN,0.00,WeatherDisplay:10.37,2013-08-18 07:05:00,
2013-08-18 09:10:00,71.1,56.0,30.04,NW,315,3.5,3.5,59,0.00,CLR,BKN,0.00,WeatherDisplay:10.37,2013-08-18 07:10:00,
2013-08-18 09:15:00,71.4,56.3,30.05,NW,315,3.5,3.5,59,0.00,CLR,BKN,0.00,WeatherDisplay:10.37,2013-08-18 07:15:00,
2013-08-18 09:20:00,71.8,55.7,30.04,SW,225,3.5,3.5,57,0.00,CLR,BKN,0.00,WeatherDisplay:10.37,2013-08-18 07:20:00,
2013-08-18 09:25:00,72.3,55.7,30.05,NW,315,3.5,3.5,56,0.00,CLR,BKN,0.00,WeatherDisplay:10.37,2013-08-18 07:25:00,
2013-08-18 09:30:00,72.5,55.4,30.05,SE,135,3.5,3.5,55,0.00,CLR,BKN,0.00,WeatherDisplay:10.37,2013-08-18 07:30:00,
2013-08-18 09:35:00,72.9,55.7,30.05,WSW,248,2.3,0.0,55,0.00,CLR,BKN,0.00,WeatherDisplay:10.37,2013-08-18 07:35:00,
2013-08-18 09:40:00,73.8,56.1,30.04,NW,315,2.3,2.3,54,0.00,CLR,BKN,0.00,WeatherDisplay:10.37,2013-08-18 07:40:00,
2013-08-18 09:45:00,74.1,55.4,30.04,SW,225,3.5,3.5,52,0.00,CLR,BKN,0.00,WeatherDisplay:10.37,2013-08-18 07:45:00,
2013-08-18 09:50:00,75.0,56.2,30.04,NW,315,2.3,2.3,52,0.00,CLR,BKN,0.00,WeatherDisplay:10.37,2013-08-18 07:50:00,
2013-08-18 09:55:00,75.6,56.2,30.04,NW,315,3.5,3.5,51,0.00,CLR,BKN,0.00,WeatherDisplay:10.37,2013-08-18 07:55:00,
2013-08-18 10:00:00,76.1,56.1,30.04,West,270,3.5,3.5,50,0.00,CLR,BKN,0.00,WeatherDisplay:10.37,2013-08-18 08:00:00,
2013-08-18 10:05:00,76.1,56.1,30.04,West,270,3.5,3.5,50,0.00,CLR,BKN,0.00,WeatherDisplay:10.37,2013-08-18 08:05:00,
2013-08-18 10:10:00,77.2,55.4,30.04,North,0,3.5,3.5,47,0.00,CLR,BKN,0.00,WeatherDisplay:10.37,2013-08-18 08:10:00,
2013-08-18 10:15:00,77.5,55.1,30.04,SW,225,4.6,4.6,46,0.00,CLR,BKN,0.00,WeatherDisplay:10.37,2013-08-18 08:15:00,
2013-08-18 10:20:00,78.3,53.9,30.04,SW,225,4.6,4.6,43,0.00,CLR,BKN,0.00,WeatherDisplay:10.37,2013-08-18 08:20:00,
2013-08-18 10:25:00,78.6,52.9,30.03,SW,225,3.5,3.5,41,0.00,CLR,BKN,0.00,WeatherDisplay:10.37,2013-08-18 08:25:00,
2013-08-18 10:30:00,79.3,52.9,30.03,WNW,292,5.8,5.8,40,0.00,CLR,BKN,0.00,WeatherDisplay:10.37,2013-08-18 08:30:00,
2013-08-18 10:35:00,79.9,52.7,30.03,SW,225,3.5,3.5,39,0.00,CLR,BKN,0.00,WeatherDisplay:10.37,2013-08-18 08:35:00,
2013-08-18 10:40:00,80.6,52.6,30.04,SW,225,5.8,5.8,38,0.00,CLR,BKN,0.00,WeatherDisplay:10.37,2013-08-18 08:40:00,
2013-08-18 10:45:00,81.3,53.3,30.03,SW,225,5.4,5.4,38,0.00,CLR,BKN,0.00,WeatherDisplay:10.37,2013-08-18 08:45:00,
2013-08-18 10:50:00,82.0,52.4,30.03,South,180,5.8,5.8,36,0.00,CLR,BKN,0.00,WeatherDisplay:10.37,2013-08-18 08:50:00,
2013-08-18 10:55:00,83.3,52.8,30.03,SE,135,5.8,5.8,35,0.00,CLR,BKN,0.00,WeatherDisplay:10.37,2013-08-18 08:55:00,
2013-08-18 11:00:00,84.0,54.2,30.03,South,180,6.0,6.0,36,0.00,CLR,BKN,0.00,WeatherDisplay:10.37,2013-08-18 09:00:00,
2013-08-18 11:05:00,84.9,52.6,30.03,South,180,5.8,5.8,33,0.00,CLR,BKN,0.00,WeatherDisplay:10.37,2013-08-18 09:05:00,
2013-08-18 11:10:00,85.5,52.2,30.03,SSW,202,6.9,6.9,32,0.00,CLR,BKN,0.00,WeatherDisplay:10.37,2013-08-18 09:10:00,
2013-08-18 11:15:00,86.0,51.8,30.03,South,180,9.2,9.2,31,0.00,CLR,BKN,0.00,WeatherDisplay:10.37,2013-08-18 09:15:00,
2013-08-18 11:20:00,86.2,51.1,30.03,West,270,6.9,6.9,30,0.00,CLR,BKN,0.00,WeatherDisplay:10.37,2013-08-18 09:20:00,
2013-08-18 11:25:00,86.2,51.1,30.02,SW,225,9.2,9.2,30,0.00,CLR,BKN,0.00,WeatherDisplay:10.37,2013-08-18 09:25:00,
2013-08-18 11:30:00,86.4,51.3,30.03,South,180,5.8,5.8,30,0.00,CLR,BKN,0.00,WeatherDisplay:10.37,2013-08-18 09:30:00,
2013-08-18 11:35:00,86.5,51.4,30.02,SW,225,7.6,7.6,30,0.00,CLR,BKN,0.00,WeatherDisplay:10.37,2013-08-18 09:35:00,
2013-08-18 11:40:00,86.7,51.6,30.02,SW,225,6.9,6.9,30,0.00,CLR,BKN,0.00,WeatherDisplay:10.37,2013-08-18 09:40:00,
2013-08-18 11:45:00,87.3,52.0,30.02,West,270,8.3,8.3,30,0.00,CLR,BKN,0.00,WeatherDisplay:10.37,2013-08-18 09:45:00,
2013-08-18 11:50:00,87.6,51.4,30.02,South,180,5.8,5.8,29,0.00,CLR,BKN,0.00,WeatherDisplay:10.37,2013-08-18 09:50:00,
2013-08-18 11:55:00,88.2,50.9,30.02,South,180,8.3,8.3,28,0.00,CLR,BKN,0.00,WeatherDisplay:10.37,2013-08-18 09:55:00,
2013-08-18 12:00:00,88.5,49.3,30.02,SW,225,8.1,8.1,26,0.00,CLR,BKN,0.00,WeatherDisplay:10.37,2013-08-18 10:00:00,
2013-08-18 12:05:00,88.5,49.3,30.02,SW,225,6.0,6.0,26,0.00,CLR,BKN,0.00,WeatherDisplay:10.37,2013-08-18 10:05:00,
2013-08-18 12:10:00,88.7,47.3,30.02,SW,225,10.4,10.4,24,0.00,CLR,BKN,0.00,WeatherDisplay:10.37,2013-08-18 10:10:00,
2013-08-18 12:15:00,88.9,49.6,30.01,South,180,6.9,6.9,26,0.00,CLR,BKN,0.00,WeatherDisplay:10.37,2013-08-18 10:15:00,
2013-08-18 12:20:00,88.9,48.5,30.02,WNW,292,5.8,5.8,25,0.00,CLR,BKN,0.00,WeatherDisplay:10.37,2013-08-18 10:20:00,
2013-08-18 12:25:00,88.9,48.5,30.01,WNW,292,8.1,8.1,25,0.00,CLR,BKN,0.00,WeatherDisplay:10.37,2013-08-18 10:25:00,
2013-08-18 12:30:00,89.1,49.7,30.01,SW,225,5.4,5.4,26,0.00,CLR,BKN,0.00,WeatherDisplay:10.37,2013-08-18 10:30:00,
2013-08-18 12:35:00,89.2,47.7,30.01,West,270,9.2,9.2,24,0.00,CLR,BKN,0.00,WeatherDisplay:10.37,2013-08-18 10:35:00,
2013-08-18 12:40:00,89.4,49.0,30.01,SW,225,6.9,6.9,25,0.00,CLR,BKN,0.00,WeatherDisplay:10.37,2013-08-18 10:40:00,
2013-08-18 12:45:00,89.4,47.9,30.00,South,180,6.9,6.9,24,0.00,CLR,BKN,0.00,WeatherDisplay:10.37,2013-08-18 10:45:00,
2013-08-18 12:50:00,89.8,47.0,30.01,South,180,6.9,6.9,23,0.00,CLR,BKN,0.00,WeatherDisplay:10.37,2013-08-18 10:50:00,
2013-08-18 12:55:00,90.1,47.3,30.01,South,180,9.2,9.2,23,0.00,CLR,BKN,0.00,WeatherDisplay:10.37,2013-08-18 10:55:00,
2013-08-18 13:00:00,89.8,45.9,30.01,SW,225,5.4,5.4,22,0.00,CLR,BKN,0.00,WeatherDisplay:10.37,2013-08-18 11:00:00,
2013-08-18 13:05:00,89.6,44.5,30.00,South,180,8.3,8.3,21,0.00,CLR,BKN,0.00,WeatherDisplay:10.37,2013-08-18 11:05:00,
2013-08-18 13:10:00,89.8,44.6,30.00,South,180,8.1,8.1,21,0.00,CLR,BKN,0.00,WeatherDisplay:10.37,2013-08-18 11:10:00,
2013-08-18 13:15:00,90.1,46.2,30.00,SW,225,8.1,8.1,22,0.00,CLR,BKN,0.00,WeatherDisplay:10.37,2013-08-18 11:15:00,
2013-08-18 13:20:00,90.1,46.2,30.00,SW,225,6.9,6.9,22,0.00,CLR,BKN,0.00,WeatherDisplay:10.37,2013-08-18 11:20:00,
2013-08-18 13:25:00,90.1,46.2,30.00,WSW,248,7.6,7.6,22,0.00,CLR,BKN,0.00,WeatherDisplay:10.37,2013-08-18 11:25:00,
2013-08-18 13:30:00,90.1,44.9,30.00,SE,135,8.1,8.1,21,0.00,CLR,BKN,0.00,WeatherDisplay:10.37,2013-08-18 11:30:00,
2013-08-18 13:35:00,90.1,43.7,30.00,WNW,292,5.8,5.8,20,0.00,CLR,BKN,0.00,WeatherDisplay:10.37,2013-08-18 11:35:00,
2013-08-18 13:40:00,90.1,43.7,30.00,West,270,5.8,5.8,20,0.00,CLR,BKN,0.00,WeatherDisplay:10.37,2013-08-18 11:40:00,
2013-08-18 13:45:00,89.8,42.0,29.99,SW,225,9.2,9.2,19,0.00,CLR,BKN,0.00,WeatherDisplay:10.37,2013-08-18 11:45:00,
2013-08-18 13:50:00,90.1,43.7,29.99,South,180,5.8,5.8,20,0.00,CLR,BKN,0.00,WeatherDisplay:10.37,2013-08-18 11:50:00,
2013-08-18 13:55:00,90.1,42.3,29.99,West,270,4.6,4.6,19,0.00,CLR,BKN,0.00,WeatherDisplay:10.37,2013-08-18 11:55:00,
2013-08-18 14:00:00,90.3,42.5,29.99,SW,225,5.8,5.8,19,0.00,CLR,BKN,0.00,WeatherDisplay:10.37,2013-08-18 12:00:00,
2013-08-18 14:05:00,90.3,42.5,29.99,SW,225,3.8,3.8,19,0.00,CLR,BKN,0.00,WeatherDisplay:10.37,2013-08-18 12:05:00,
2013-08-18 14:10:00,90.1,42.3,29.99,SW,225,6.9,6.9,19,0.00,CLR,BKN,0.00,WeatherDisplay:10.37,2013-08-18 12:10:00,
2013-08-18 14:15:00,90.1,42.3,29.99,South,180,5.8,5.8,19,0.00,CLR,BKN,0.00,WeatherDisplay:10.37,2013-08-18 12:15:00,
2013-08-18 14:20:00,90.1,42.3,29.99,SW,225,6.9,6.9,19,0.00,CLR,BKN,0.00,WeatherDisplay:10.37,2013-08-18 12:20:00,
2013-08-18 14:25:00,90.1,42.3,29.99,West,270,8.1,8.1,19,0.00,CLR,BKN,0.00,WeatherDisplay:10.37,2013-08-18 12:25:00,
2013-08-18 14:30:00,90.1,42.3,29.99,SW,225,5.8,5.8,19,0.00,CLR,BKN,0.00,WeatherDisplay:10.37,2013-08-18 12:30:00,
2013-08-18 14:35:00,90.1,42.3,29.99,SW,225,7.6,7.6,19,0.00,CLR,BKN,0.00,WeatherDisplay:10.37,2013-08-18 12:35:00,
2013-08-18 14:40:00,90.3,42.5,29.99,South,180,5.8,5.8,19,0.00,CLR,BKN,0.00,WeatherDisplay:10.37,2013-08-18 12:40:00,
2013-08-18 14:45:00,90.5,42.6,29.98,West,270,6.0,6.0,19,0.00,CLR,BKN,0.00,WeatherDisplay:10.37,2013-08-18 12:45:00,
2013-08-18 14:50:00,90.9,42.9,29.98,NW,315,3.5,3.5,19,0.00,CLR,BKN,0.00,WeatherDisplay:10.37,2013-08-18 12:50:00,
2013-08-18 14:55:00,91.2,43.2,29.98,SE,135,8.1,8.1,19,0.00,CLR,BKN,0.00,WeatherDisplay:10.37,2013-08-18 12:55:00,
2013-08-18 15:00:00,91.2,41.8,29.97,East,90,4.6,4.6,18,0.00,CLR,BKN,0.00,WeatherDisplay:10.37,2013-08-18 13:00:00,
2013-08-18 15:05:00,91.2,43.2,29.98,West,270,5.8,5.8,19,0.00,CLR,BKN,0.00,WeatherDisplay:10.37,2013-08-18 13:05:00,
2013-08-18 15:10:00,91.6,48.5,29.97,South,180,9.2,9.2,23,0.00,CLR,BKN,0.00,WeatherDisplay:10.37,2013-08-18 13:10:00,
2013-08-18 15:15:00,91.6,47.4,29.97,ENE,68,5.8,5.8,22,0.00,CLR,BKN,0.00,WeatherDisplay:10.37,2013-08-18 13:15:00,
2013-08-18 15:20:00,91.4,47.2,29.97,SW,225,5.8,5.8,22,0.00,CLR,BKN,0.00,WeatherDisplay:10.37,2013-08-18 13:20:00,
2013-08-18 15:25:00,91.6,48.5,29.97,West,270,5.8,5.8,23,0.00,CLR,BKN,0.00,WeatherDisplay:10.37,2013-08-18 13:25:00,
2013-08-18 15:30:00,91.8,47.5,29.97,South,180,9.2,9.2,22,0.00,CLR,BKN,0.00,WeatherDisplay:10.37,2013-08-18 13:30:00,
2013-08-18 15:35:00,91.9,47.7,29.97,SE,135,6.9,6.9,22,0.00,CLR,BKN,0.00,WeatherDisplay:10.37,2013-08-18 13:35:00,
2013-08-18 15:40:00,92.5,48.1,29.97,SW,225,8.3,8.3,22,0.00,CLR,BKN,0.00,WeatherDisplay:10.37,2013-08-18 13:40:00,
2013-08-18 15:45:00,92.1,47.8,29.97,West,270,9.2,9.2,22,0.00,CLR,BKN,0.00,WeatherDisplay:10.37,2013-08-18 13:45:00,
2013-08-18 15:50:00,92.1,47.8,29.96,SW,225,3.5,3.5,22,0.00,CLR,BKN,0.00,WeatherDisplay:10.37,2013-08-18 13:50:00,
2013-08-18 15:55:00,92.3,49.1,29.96,West,270,5.8,5.8,23,0.00,CLR,BKN,0.00,WeatherDisplay:10.37,2013-08-18 13:55:00,
2013-08-18 16:00:00,92.5,49.3,29.96,WSW,248,8.3,8.3,23,0.00,CLR,BKN,0.00,WeatherDisplay:10.37,2013-08-18 14:00:00,
2013-08-18 16:05:00,92.5,49.3,29.96,WSW,248,8.3,8.3,23,0.00,CLR,BKN,0.00,WeatherDisplay:10.37,2013-08-18 14:05:00,
2013-08-18 16:10:00,92.8,48.4,29.95,SW,225,6.9,6.9,22,0.00,CLR,BKN,0.00,WeatherDisplay:10.37,2013-08-18 14:10:00,
2013-08-18 16:15:00,92.7,48.3,29.95,SW,225,6.9,6.9,22,0.00,CLR,BKN,0.00,WeatherDisplay:10.37,2013-08-18 14:15:00,
2013-08-18 16:20:00,92.7,48.3,29.95,SW,225,6.9,6.9,22,0.00,CLR,BKN,0.00,WeatherDisplay:10.37,2013-08-18 14:20:00,
2013-08-18 16:25:00,92.5,48.1,29.95,SW,225,5.8,5.8,22,0.00,CLR,BKN,0.00,WeatherDisplay:10.37,2013-08-18 14:25:00,
2013-08-18 16:30:00,92.5,49.3,29.95,SSW,202,9.2,9.2,23,0.00,CLR,BKN,0.00,WeatherDisplay:10.37,2013-08-18 14:30:00,
2013-08-18 16:35:00,92.5,48.1,29.95,West,270,6.9,6.9,22,0.00,CLR,BKN,0.00,WeatherDisplay:10.37,2013-08-18 14:35:00,
2013-08-18 16:40:00,92.3,48.0,29.95,SSW,202,9.2,9.2,22,0.00,CLR,BKN,0.00,WeatherDisplay:10.37,2013-08-18 14:40:00,
2013-08-18 16:45:00,92.3,49.1,29.95,NW,315,6.9,6.9,23,0.00,CLR,BKN,0.00,WeatherDisplay:10.37,2013-08-18 14:45:00,
2013-08-18 16:50:00,92.1,47.8,29.95,SW,225,8.1,8.1,22,0.00,CLR,BKN,0.00,WeatherDisplay:10.37,2013-08-18 14:50:00,
2013-08-18 16:55:00,91.9,48.8,29.95,SE,135,9.2,9.2,23,0.00,CLR,BKN,0.00,WeatherDisplay:10.37,2013-08-18 14:55:00,
2013-08-18 17:00:00,91.9,48.8,29.95,SSW,202,8.1,8.1,23,0.00,CLR,BKN,0.00,WeatherDisplay:10.37,2013-08-18 15:00:00,
2013-08-18 17:05:00,91.9,48.8,29.95,East,90,8.1,8.1,23,0.00,CLR,BKN,0.00,WeatherDisplay:10.37,2013-08-18 15:05:00,
2013-08-18 17:10:00,91.9,48.8,29.95,SSW,202,6.0,6.0,23,0.00,CLR,BKN,0.00,WeatherDisplay:10.37,2013-08-18 15:10:00,
2013-08-18 17:15:00,92.1,49.0,29.94,South,180,6.9,6.9,23,0.00,CLR,BKN,0.00,WeatherDisplay:10.37,2013-08-18 15:15:00,
2013-08-18 17:20:00,92.1,49.0,29.95,SW,225,4.6,4.6,23,0.00,CLR,BKN,0.00,WeatherDisplay:10.37,2013-08-18 15:20:00,
2013-08-18 17:25:00,92.1,49.0,29.94,South,180,8.1,8.1,23,0.00,CLR,BKN,0.00,WeatherDisplay:10.37,2013-08-18 15:25:00,
2013-08-18 17:30:00,91.8,48.7,29.95,West,270,6.9,6.9,23,0.00,CLR,BKN,0.00,WeatherDisplay:10.37,2013-08-18 15:30:00,
2013-08-18 17:35:00,91.2,44.5,29.95,South,180,9.2,9.2,20,0.00,CLR,BKN,0.00,WeatherDisplay:10.37,2013-08-18 15:35:00,
2013-08-18 17:40:00,90.9,45.5,29.94,SW,225,8.3,8.3,21,0.00,CLR,BKN,0.00,WeatherDisplay:10.37,2013-08-18 15:40:00,
2013-08-18 17:45:00,90.7,45.4,29.94,SW,225,6.0,6.0,21,0.00,CLR,BKN,0.00,WeatherDisplay:10.37,2013-08-18 15:45:00,
2013-08-18 17:50:00,90.7,45.4,29.94,South,180,6.9,6.9,21,0.00,CLR,BKN,0.00,WeatherDisplay:10.37,2013-08-18 15:50:00,
2013-08-18 17:55:00,90.5,45.2,29.94,SSW,202,7.6,7.6,21,0.00,CLR,BKN,0.00,WeatherDisplay:10.37,2013-08-18 15:55:00,
2013-08-18 18:00:00,90.1,44.9,29.95,South,180,6.9,6.9,21,0.00,CLR,BKN,0.00,WeatherDisplay:10.37,2013-08-18 16:00:00,
2013-08-18 18:05:00,90.1,44.9,29.95,South,180,6.9,6.9,21,0.00,CLR,BKN,0.00,WeatherDisplay:10.37,2013-08-18 16:05:00,
2013-08-18 18:10:00,89.8,44.6,29.94,SW,225,4.5,4.5,21,0.00,CLR,BKN,0.00,WeatherDisplay:10.37,2013-08-18 16:10:00,
2013-08-18 18:15:00,89.8,44.6,29.94,South,180,5.8,5.8,21,0.00,CLR,BKN,0.00,WeatherDisplay:10.37,2013-08-18 16:15:00,
2013-08-18 18:20:00,89.8,44.6,29.94,South,180,4.6,4.6,21,0.00,CLR,BKN,0.00,WeatherDisplay:10.37,2013-08-18 16:20:00,
2013-08-18 18:25:00,89.6,44.5,29.94,South,180,5.4,5.4,21,0.00,CLR,BKN,0.00,WeatherDisplay:10.37,2013-08-18 16:25:00,
2013-08-18 18:30:00,89.2,45.4,29.94,SW,225,4.6,4.6,22,0.00,CLR,BKN,0.00,WeatherDisplay:10.37,2013-08-18 16:30:00,
2013-08-18 18:35:00,88.7,47.3,29.94,South,180,5.8,5.8,24,0.00,CLR,BKN,0.00,WeatherDisplay:10.37,2013-08-18 16:35:00,
2013-08-18 18:40:00,88.3,47.0,29.94,SE,135,2.3,2.3,24,0.00,CLR,BKN,0.00,WeatherDisplay:10.37,2013-08-18 16:40:00,
2013-08-18 18:45:00,87.8,46.5,29.94,SE,135,3.5,3.5,24,0.00,CLR,BKN,0.00,WeatherDisplay:10.37,2013-08-18 16:45:00,
2013-08-18 18:50:00,87.4,47.3,29.95,South,180,3.5,3.5,25,0.00,CLR,BKN,0.00,WeatherDisplay:10.37,2013-08-18 16:50:00,
2013-08-18 18:55:00,86.7,46.7,29.94,SW,225,4.6,4.6,25,0.00,CLR,BKN,0.00,WeatherDisplay:10.37,2013-08-18 16:55:00,
2013-08-18 19:00:00,86.4,47.4,29.95,SW,225,3.5,3.5,26,0.00,CLR,BKN,0.00,WeatherDisplay:10.37,2013-08-18 17:00:00,
2013-08-18 19:05:00,85.8,48.9,29.95,South,180,4.6,4.6,28,0.00,CLR,BKN,0.00,WeatherDisplay:10.37,2013-08-18 17:05:00,
2013-08-18 19:10:00,85.3,49.4,29.95,South,180,4.6,4.6,29,0.00,CLR,BKN,0.00,WeatherDisplay:10.37,2013-08-18 17:10:00,
2013-08-18 19:15:00,84.9,50.0,29.95,South,180,3.5,3.5,30,0.00,CLR,BKN,0.00,WeatherDisplay:10.37,2013-08-18 17:15:00,
2013-08-18 19:20:00,84.4,50.4,29.94,South,180,3.5,3.5,31,0.00,CLR,BKN,0.00,WeatherDisplay:10.37,2013-08-18 17:20:00,
2013-08-18 19:25:00,83.7,50.7,29.95,SW,225,2.3,2.3,32,0.00,CLR,BKN,0.00,WeatherDisplay:10.37,2013-08-18 17:25:00,
2013-08-18 19:30:00,83.1,51.8,29.95,West,270,3.5,3.5,34,0.00,CLR,BKN,0.00,WeatherDisplay:10.37,2013-08-18 17:30:00,
2013-08-18 19:35:00,82.6,52.2,29.95,SW,225,2.3,0.0,35,0.00,CLR,BKN,0.00,WeatherDisplay:10.37,2013-08-18 17:35:00,
2013-08-18 19:40:00,81.9,51.5,29.95,SW,225,1.2,0.0,35,0.00,CLR,BKN,0.00,WeatherDisplay:10.37,2013-08-18 17:40:00,
2013-08-18 19:45:00,81.1,52.4,29.95,South,180,3.5,3.5,37,0.00,CLR,BKN,0.00,WeatherDisplay:10.37,2013-08-18 17:45:00,
2013-08-18 19:50:00,80.2,53.0,29.94,SW,225,1.2,0.0,39,0.00,CLR,BKN,0.00,WeatherDisplay:10.37,2013-08-18 17:50:00,
2013-08-18 19:55:00,79.9,53.4,29.95,SW,225,2.3,2.3,40,0.00,CLR,BKN,0.00,WeatherDisplay:10.37,2013-08-18 17:55:00,
2013-08-18 20:00:00,79.3,53.6,29.95,South,180,2.3,2.3,41,0.00,CLR,BKN,0.00,WeatherDisplay:10.37,2013-08-18 18:00:00,
2013-08-18 20:05:00,79.3,53.6,29.95,South,180,2.3,2.3,41,0.00,CLR,BKN,0.00,WeatherDisplay:10.37,2013-08-18 18:05:00,
2013-08-18 20:10:00,78.1,53.8,29.95,West,270,2.3,2.3,43,0.00,CLR,BKN,0.00,WeatherDisplay:10.37,2013-08-18 18:10:00,
2013-08-18 20:15:00,77.7,53.4,29.95,West,270,1.2,0.0,43,0.00,CLR,BKN,0.00,WeatherDisplay:10.37,2013-08-18 18:15:00,
2013-08-18 20:20:00,77.2,53.6,29.95,East,90,1.6,1.6,44,0.00,CLR,BKN,0.00,WeatherDisplay:10.37,2013-08-18 18:20:00,
2013-08-18 20:25:00,76.3,54.0,29.95,East,90,1.6,1.6,46,0.00,CLR,BKN,0.00,WeatherDisplay:10.37,2013-08-18 18:25:00,
2013-08-18 20:30:00,75.9,54.2,29.95,East,90,0.0,0.0,47,0.00,CLR,BKN,0.00,WeatherDisplay:10.37,2013-08-18 18:30:00,
2013-08-18 20:35:00,75.4,54.3,29.96,East,90,0.0,0.0,48,0.00,CLR,BKN,0.00,WeatherDisplay:10.37,2013-08-18 18:35:00,
2013-08-18 20:40:00,74.8,54.9,29.95,East,90,0.0,0.0,50,0.00,CLR,BKN,0.00,WeatherDisplay:10.37,2013-08-18 18:40:00,
2013-08-18 20:45:00,74.5,55.2,29.96,SE,135,0.0,0.0,51,0.00,CLR,BKN,0.00,WeatherDisplay:10.37,2013-08-18 18:45:00,
2013-08-18 20:51:00,73.9,55.2,29.95,SE,135,1.6,1.6,52,0.00,CLR,BKN,0.00,WeatherDisplay:10.37,2013-08-18 18:51:00,
2013-08-18 20:56:00,73.6,54.9,29.96,SE,135,0.0,0.0,52,0.00,CLR,BKN,0.00,WeatherDisplay:10.37,2013-08-18 18:56:00,
2013-08-18 21:01:00,73.2,55.6,29.96,East,90,2.3,2.3,54,0.00,CLR,BKN,0.00,WeatherDisplay:10.37,2013-08-18 19:01:00,
2013-08-18 21:06:00,72.9,55.2,29.96,East,90,1.2,0.0,54,0.00,CLR,BKN,0.00,WeatherDisplay:10.37,2013-08-18 19:06:00,
2013-08-18 21:11:00,72.5,54.9,29.96,SW,225,1.6,1.6,54,0.00,CLR,BKN,0.00,WeatherDisplay:10.37,2013-08-18 19:11:00,
2013-08-18 21:16:00,72.1,54.6,29.96,East,90,2.2,2.2,54,0.00,CLR,BKN,0.00,WeatherDisplay:10.37,2013-08-18 19:16:00,
2013-08-18 21:21:00,72.0,54.9,29.95,SE,135,3.5,3.5,55,0.00,CLR,BKN,0.00,WeatherDisplay:10.37,2013-08-18 19:21:00,
2013-08-18 21:26:00,71.6,53.6,29.96,East,90,1.2,0.0,53,0.00,CLR,BKN,0.00,WeatherDisplay:10.37,2013-08-18 19:26:00,
2013-08-18 21:31:00,71.2,53.2,29.96,West,270,1.2,1.2,53,0.00,CLR,BKN,0.00,WeatherDisplay:10.37,2013-08-18 19:31:00,
2013-08-18 21:36:00,70.9,52.9,29.96,NW,315,1.2,0.0,53,0.00,CLR,BKN,0.00,WeatherDisplay:10.37,2013-08-18 19:36:00,
2013-08-18 21:41:00,70.5,53.1,29.96,NW,315,1.6,1.6,54,0.00,CLR,BKN,0.00,WeatherDisplay:10.37,2013-08-18 19:41:00,
2013-08-18 21:46:00,70.2,52.7,29.96,NW,315,1.6,1.6,54,0.00,CLR,BKN,0.00,WeatherDisplay:10.37,2013-08-18 19:46:00,
2013-08-18 21:51:00,70.0,53.1,29.96,NW,315,1.2,0.0,55,0.00,CLR,BKN,0.00,WeatherDisplay:10.37,2013-08-18 19:51:00,
2013-08-18 21:56:00,69.8,53.4,29.97,NW,315,0.0,0.0,56,0.00,CLR,BKN,0.00,WeatherDisplay:10.37,2013-08-18 19:56:00,
2013-08-18 22:01:00,69.4,53.5,29.97,NW,315,0.0,0.0,57,0.00,CLR,BKN,0.00,WeatherDisplay:10.37,2013-08-18 20:01:00,
2013-08-18 22:06:00,69.3,53.8,29.97,NW,315,0.0,0.0,58,0.00,CLR,BKN,0.00,WeatherDisplay:10.37,2013-08-18 20:06:00,
2013-08-18 22:11:00,68.9,54.0,29.96,SSE,158,0.0,0.0,59,0.00,CLR,BKN,0.00,WeatherDisplay:10.37,2013-08-18 20:11:00,
2013-08-18 22:16:00,68.7,53.8,29.97,SSE,158,1.2,0.0,59,0.00,CLR,BKN,0.00,WeatherDisplay:10.37,2013-08-18 20:16:00,
2013-08-18 22:21:00,68.5,53.6,29.97,South,180,0.0,0.0,59,0.00,CLR,BKN,0.00,WeatherDisplay:10.37,2013-08-18 20:21:00,
2013-08-18 22:26:00,68.4,53.5,29.96,South,180,0.0,0.0,59,0.00,CLR,BKN,0.00,WeatherDisplay:10.37,2013-08-18 20:26:00,
2013-08-18 22:31:00,68.2,53.3,29.96,North,0,0.0,0.0,59,0.00,CLR,BKN,0.00,WeatherDisplay:10.37,2013-08-18 20:31:00,
2013-08-18 22:36:00,68.0,53.6,29.96,North,0,0.0,0.0,60,0.00,CLR,BKN,0.00,WeatherDisplay:10.37,2013-08-18 20:36:00,
2013-08-18 22:41:00,67.6,53.7,29.97,North,0,0.0,0.0,61,0.00,CLR,BKN,0.00,WeatherDisplay:10.37,2013-08-18 20:41:00,
2013-08-18 22:46:00,67.5,54.0,29.96,SE,135,2.2,2.2,62,0.00,CLR,BKN,0.00,WeatherDisplay:10.37,2013-08-18 20:46:00,
2013-08-18 22:51:00,67.3,53.8,29.97,East,90,3.5,3.5,62,0.00,CLR,BKN,0.00,WeatherDisplay:10.37,2013-08-18 20:51:00,
2013-08-18 22:56:00,67.1,53.6,29.96,East,90,1.2,0.0,62,0.00,CLR,BKN,0.00,WeatherDisplay:10.37,2013-08-18 20:56:00,
2013-08-18 23:01:00,66.7,53.3,29.97,West,270,1.2,0.0,62,0.00,CLR,BKN,0.00,WeatherDisplay:10.37,2013-08-18 21:01:00,
2013-08-18 23:06:00,66.6,53.1,29.97,NW,315,1.6,1.6,62,0.00,CLR,BKN,0.00,WeatherDisplay:10.37,2013-08-18 21:06:00,
2013-08-18 23:11:00,66.4,53.8,29.97,NW,315,1.2,0.0,64,0.00,CLR,BKN,0.00,WeatherDisplay:10.37,2013-08-18 21:11:00,
2013-08-18 23:16:00,66.2,54.1,29.96,NW,315,0.0,0.0,65,0.00,CLR,BKN,0.00,WeatherDisplay:10.37,2013-08-18 21:16:00,
2013-08-18 23:21:00,66.2,55.3,29.97,NW,315,0.0,0.0,68,0.00,CLR,BKN,0.00,WeatherDisplay:10.37,2013-08-18 21:21:00,
2013-08-18 23:26:00,66.2,54.9,29.97,South,180,0.0,0.0,67,0.00,CLR,BKN,0.00,WeatherDisplay:10.37,2013-08-18 21:26:00,
2013-08-18 23:31:00,66.0,54.7,29.97,East,90,1.2,0.0,67,0.00,CLR,BKN,0.00,WeatherDisplay:10.37,2013-08-18 21:31:00,
2013-08-18 23:36:00,65.8,54.6,29.97,East,90,1.2,0.0,67,0.00,CLR,BKN,0.00,WeatherDisplay:10.37,2013-08-18 21:36:00,
2013-08-18 23:41:00,65.5,54.2,29.97,East,90,0.0,0.0,67,0.00,CLR,BKN,0.00,WeatherDisplay:10.37,2013-08-18 21:41:00,
2013-08-18 23:46:00,65.1,53.9,29.97,East,90,0.0,0.0,67,0.00,CLR,BKN,0.00,WeatherDisplay:10.37,2013-08-18 21:46:00,
2013-08-18 23:51:00,64.9,53.7,29.97,East,90,0.0,0.0,67,0.00,CLR,BKN,0.00,WeatherDisplay:10.37,2013-08-18 21:51:00,
2013-08-18 23:56:00,64.8,53.5,29.97,East,90,1.6,1.6,67,0.00,CLR,BKN,0.00,WeatherDisplay:10.37,2013-08-18 21:56:00,